Voltar ao catálogo

ONEWEB-0400

AtivoComunicaçõesPO
NORAD 50480·PAYLOAD·🇬🇧 United Kingdom

Lançado Dec 27, 2021 de Baikonur Cosmodrome

Loading…

Próximas Passagens (próximas 24 horas)

TLE

AtualizadoSource: CelesTrak SupGP

Época: Sep 14, 2026, 20:53 UTC

1 50480C 21132M   26257.87031667 -.00000622  00000+0 -15803-2 0  2573
2 50480  87.9172 317.6307 0001799  99.5349  13.3948 13.18687884    18

Acompanhe ONEWEB-0400 em tempo real com AllMySat

Download on the App Store